QPF
0.00 0.01 0.01 0.00 0.00 0.01 0.01 0.02 0.02 0.04 0.10 0.14 0.14 0.11 0.09 0.07 0.05 0.04 0.02 0.02 0.03 0.03 0.03 0.02 0.02 0.03 0.02 0.02 0.01 0.01 0.01 0.01 0.01 0.01 0.01 0.01 0.01 0.01 0.01 0.01 0.01 0.01 0.01
0.01 0.01 0.01 0.01 0.01 0.01 0.00 0.01 0.02 0.05 0.09 0.14 0.14 0.11 0.09 0.06 0.04 0.03 0.03 0.03 0.04 0.05 0.05 0.03 0.02 0.03 0.03 0.03 0.02 0.02 0.02 0.02 0.02 0.01 0.01 0.02 0.02 0.01 0.01 0.01 0.01 0.01 0.01
0.01 0.01 0.01 0.01 0.01 0.01 0.01 0.00 0.01 0.04 0.09 0.15 0.17 0.15 0.12 0.08 0.05 0.03 0.02 0.03 0.03 0.04 0.06 0.05 0.04 0.03 0.02 0.03 0.03 0.02 0.01 0.02 0.02 0.02 0.02 0.02 0.02 0.01 0.01 0.01 0.01 0.01 0.01
0.00 0.01 0.01 0.01 0.02 0.01 0.01 0.00 0.01 0.04 0.07 0.13 0.19 0.17 0.14 0.08 0.04 0.03 0.03 0.03 0.03 0.03 0.04 0.04 0.04 0.03 0.03 0.03 0.04 0.03 0.02 0.02 0.02 0.03 0.03 0.03 0.02 0.02 0.02 0.01 0.01 0.01 0.01
0.00 0.00 0.01 0.02 0.03 0.02 0.01 0.01 0.02 0.04 0.07 0.10 0.15 0.16 0.15 0.10 0.06 0.04 0.04 0.03 0.03 0.03 0.04 0.05 0.05 0.03 0.02 0.03 0.03 0.03 0.03 0.03 0.04 0.04 0.04 0.04 0.03 0.03 0.03 0.02 0.02 0.02 0.02
0.00 0.00 0.01 0.03 0.04 0.04 0.02 0.02 0.03 0.05 0.08 0.09 0.12 0.14 0.13 0.10 0.07 0.04 0.04 0.03 0.03 0.03 0.04 0.05 0.05 0.04 0.03 0.02 0.02 0.02 0.03 0.03 0.03 0.03 0.03 0.03 0.03 0.02 0.02 0.02 0.02 0.01 0.01
0.01 0.01 0.03 0.03 0.04 0.03 0.02 0.03 0.04 0.06 0.09 0.10 0.11 0.12 0.11 0.11 0.08 0.06 0.05 0.03 0.02 0.02 0.02 0.04 0.04 0.04 0.03 0.02 0.02 0.02 0.03 0.03 0.03 0.02 0.02 0.02 0.02 0.02 0.02 0.02 0.02 0.02 0.02
0.01 0.02 0.03 0.04 0.04 0.03 0.02 0.03 0.04 0.06 0.11 0.12 0.11 0.10 0.09 0.10 0.10 0.08 0.06 0.04 0.03 0.02 0.02 0.04 0.04 0.04 0.03 0.02 0.03 0.02 0.02 0.02 0.02 0.02 0.02 0.02 0.02 0.02 0.02 0.03 0.04 0.04 0.04
0.02 0.02 0.04 0.04 0.03 0.02 0.02 0.03 0.04 0.06 0.11 0.13 0.12 0.09 0.08 0.07 0.08 0.07 0.07 0.05 0.04 0.04 0.03 0.03 0.04 0.04 0.03 0.03 0.03 0.03 0.03 0.03 0.03 0.02 0.02 0.02 0.02 0.01 0.01 0.02 0.03 0.05 0.06
0.03 0.05 0.05 0.04 0.03 0.03 0.03 0.03 0.04 0.06 0.10 0.15 0.14 0.10 0.08 0.07 0.07 0.06 0.06 0.06 0.05 0.05 0.04 0.04 0.05 0.03 0.02 0.02 0.02 0.03 0.03 0.03 0.03 0.03 0.02 0.03 0.03 0.03 0.02 0.02 0.02 0.03 0.04
0.04 0.10 0.11 0.05 0.04 0.03 0.03 0.04 0.05 0.07 0.10 0.14 0.14 0.11 0.09 0.07 0.06 0.06 0.06 0.05 0.06 0.07 0.05 0.05 0.05 0.04 0.03 0.02 0.02 0.02 0.02 0.02 0.03 0.03 0.03 0.03 0.04 0.05 0.04 0.03 0.03 0.03 0.04
0.04 0.06 0.07 0.05 0.04 0.04 0.04 0.06 0.08 0.08 0.11 0.13 0.15 0.13 0.10 0.08 0.08 0.07 0.06 0.06 0.07 0.08 0.08 0.07 0.05 0.04 0.04 0.03 0.02 0.02 0.02 0.02 0.02 0.02 0.03 0.03 0.03 0.04 0.05 0.04 0.03 0.03 0.04
0.03 0.04 0.04 0.04 0.04 0.05 0.05 0.07 0.08 0.09 0.10 0.11 0.13 0.12 0.09 0.08 0.08 0.08 0.08 0.05 0.06 0.06 0.07 0.07 0.05 0.04 0.05 0.04 0.03 0.03 0.03 0.03 0.03 0.04 0.05 0.05 0.05 0.04 0.04 0.04 0.04 0.04 0.05
0.05 0.04 0.03 0.03 0.03 0.06 0.07 0.07 0.09 0.09 0.09 0.10 0.12 0.11 0.08 0.07 0.07 0.08 0.09 0.06 0.06 0.06 0.05 0.05 0.04 0.05 0.04 0.04 0.04 0.04 0.03 0.03 0.04 0.06 0.06 0.06 0.05 0.04 0.04 0.04 0.04 0.04 0.04
0.07 0.05 0.04 0.03 0.04 0.05 0.08 0.08 0.09 0.09 0.10 0.10 0.12 0.11 0.07 0.07 0.09 0.10 0.10 0.08 0.08 0.07 0.06 0.04 0.05 0.05 0.05 0.04 0.05 0.05 0.04 0.04 0.04 0.06 0.07 0.07 0.06 0.06 0.06 0.05 0.05 0.04 0.04
0.08 0.07 0.05 0.04 0.05 0.06 0.09 0.10 0.10 0.10 0.11 0.11 0.11 0.11 0.10 0.08 0.10 0.13 0.13 0.11 0.11 0.12 0.11 0.07 0.06 0.05 0.05 0.06 0.07 0.07 0.06 0.05 0.05 0.05 0.05 0.05 0.05 0.05 0.05 0.04 0.04 0.04 0.05
0.03 0.06 0.06 0.05 0.06 0.07 0.08 0.09 0.11 0.11 0.10 0.11 0.09 0.09 0.11 0.10 0.09 0.11 0.13 0.14 0.15 0.16 0.16 0.13 0.09 0.07 0.07 0.08 0.07 0.07 0.06 0.06 0.05 0.05 0.04 0.04 0.04 0.04 0.04 0.05 0.05 0.05 0.05
0.01 0.02 0.04 0.06 0.05 0.05 0.07 0.07 0.08 0.08 0.08 0.08 0.08 0.08 0.09 0.10 0.10 0.09 0.11 0.14 0.15 0.17 0.20 0.18 0.13 0.10 0.09 0.09 0.08 0.08 0.08 0.08 0.07 0.06 0.05 0.04 0.04 0.04 0.05 0.05 0.05 0.04 0.04
0.02 0.02 0.03 0.05 0.06 0.06 0.07 0.06 0.06 0.05 0.06 0.06 0.07 0.07 0.07 0.07 0.08 0.08 0.09 0.12 0.13 0.14 0.17 0.17 0.15 0.12 0.10 0.10 0.10 0.10 0.09 0.08 0.07 0.06 0.05 0.04 0.04 0.05 0.06 0.06 0.05 0.05 0.05
0.03 0.03 0.04 0.04 0.04 0.05 0.05 0.05 0.05 0.04 0.04 0.04 0.05 0.05 0.05 0.05 0.06 0.07 0.08 0.09 0.11 0.13 0.13 0.13 0.13 0.12 0.11 0.11 0.10 0.09 0.08 0.08 0.07 0.06 0.05 0.04 0.04 0.04 0.05 0.04 0.04 0.04 0.03
0.03 0.03 0.03 0.03 0.04 0.04 0.04 0.04 0.04 0.04 0.03 0.03 0.03 0.03 0.03 0.03 0.04 0.06 0.06 0.07 0.09 0.11 0.11 0.11 0.11 0.11 0.10 0.09 0.09 0.09 0.08 0.07 0.07 0.06 0.05 0.04 0.04 0.04 0.04 0.04 0.03 0.03 0.03
0.02 0.02 0.03 0.03 0.03 0.03 0.03 0.03 0.03 0.02 0.02 0.02 0.02 0.02 0.02 0.02 0.02 0.03 0.04 0.05 0.07 0.09 0.08 0.08 0.08 0.10 0.10 0.09 0.09 0.09 0.09 0.08 0.07 0.06 0.05 0.05 0.05 0.05 0.05 0.05 0.05 0.04 0.04
0.02 0.02 0.02 0.02 0.02 0.02 0.02 0.03 0.02 0.02 0.01 0.01 0.01 0.01 0.01 0.02 0.02 0.02 0.02 0.02 0.05 0.06 0.06 0.06 0.06 0.07 0.06 0.06 0.06 0.06 0.06 0.06 0.06 0.06 0.05 0.05 0.05 0.05 0.04 0.04 0.05 0.04 0.04
0.02 0.02 0.01 0.01 0.01 0.01 0.01 0.02 0.02 0.02 0.01 0.01 0.01 0.01 0.01 0.01 0.01 0.01 0.02 0.02 0.03 0.04 0.03 0.03 0.03 0.04 0.04 0.04 0.04 0.04 0.04 0.04 0.05 0.05 0.05 0.05 0.04 0.04 0.03 0.04 0.04 0.03 0.03
0.01 0.01 0.01 0.01 0.01 0.01 0.01 0.02 0.03 0.02 0.02 0.01 0.01 0.01 0.01 0.01 0.01 0.01 0.01 0.02 0.02 0.03 0.02 0.02 0.02 0.02 0.03 0.03 0.03 0.03 0.03 0.03 0.03 0.03 0.04 0.04 0.04 0.03 0.03 0.03 0.03 0.03 0.03
0.01 0.01 0.01 0.01 0.01 0.01 0.02 0.02 0.03 0.03 0.03 0.02 0.02 0.01 0.01 0.01 0.01 0.01 0.01 0.02 0.02 0.02 0.02 0.02 0.02 0.02 0.02 0.03 0.03 0.03 0.03 0.03 0.03 0.03 0.03 0.03 0.03 0.03 0.03 0.03 0.03 0.03 0.04
MSLP
1006.12 1005.75 1005.33 1004.87 1004.42 1004.00 1003.65 1003.41 1003.30 1003.32 1003.48 1003.77 1004.15 1004.60 1005.11 1005.64 1006.18 1006.73 1007.28 1007.83 1008.39 1008.95 1009.50 1010.04 1010.56 1011.04 1011.46 1011.82 1012.11 1012.35 1012.53 1012.65 1012.73 1012.77 1012.78 1012.74 1012.67 1012.58 1012.47 1012.38 1012.31 1012.31 1012.39
1007.13 1006.75 1006.26 1005.69 1005.08 1004.48 1003.94 1003.51 1003.24 1003.14 1003.21 1003.44 1003.81 1004.27 1004.80 1005.37 1005.95 1006.54 1007.14 1007.73 1008.33 1008.92 1009.51 1010.07 1010.60 1011.08 1011.49 1011.84 1012.12 1012.35 1012.52 1012.65 1012.74 1012.80 1012.83 1012.81 1012.75 1012.66 1012.54 1012.41 1012.30 1012.23 1012.25
1008.02 1007.63 1007.09 1006.43 1005.69 1004.93 1004.22 1003.62 1003.19 1002.96 1002.94 1003.10 1003.44 1003.90 1004.45 1005.05 1005.68 1006.32 1006.97 1007.61 1008.25 1008.88 1009.49 1010.08 1010.61 1011.09 1011.49 1011.82 1012.09 1012.30 1012.47 1012.61 1012.72 1012.81 1012.86 1012.88 1012.86 1012.78 1012.67 1012.52 1012.37 1012.26 1012.21
1008.64 1008.27 1007.72 1007.02 1006.20 1005.34 1004.50 1003.76 1003.20 1002.85 1002.73 1002.83 1003.12 1003.56 1004.12 1004.74 1005.41 1006.09 1006.77 1007.46 1008.14 1008.80 1009.45 1010.05 1010.59 1011.07 1011.47 1011.80 1012.06 1012.27 1012.43 1012.58 1012.71 1012.83 1012.93 1012.99 1013.00 1012.95 1012.85 1012.70 1012.54 1012.38 1012.27
1008.93 1008.62 1008.12 1007.43 1006.61 1005.70 1004.80 1003.98 1003.33 1002.88 1002.67 1002.69 1002.93 1003.33 1003.87 1004.49 1005.16 1005.86 1006.57 1007.29 1007.99 1008.69 1009.36 1009.98 1010.55 1011.04 1011.45 1011.79 1012.05 1012.27 1012.44 1012.60 1012.76 1012.90 1013.03 1013.12 1013.17 1013.15 1013.07 1012.93 1012.75 1012.56 1012.39
1008.90 1008.69 1008.29 1007.70 1006.94 1006.07 1005.17 1004.32 1003.61 1003.10 1002.82 1002.76 1002.93 1003.27 1003.76 1004.34 1004.99 1005.67 1006.38 1007.10 1007.82 1008.53 1009.22 1009.87 1010.47 1010.99 1011.43 1011.79 1012.08 1012.31 1012.50 1012.68 1012.85 1013.01 1013.15 1013.27 1013.34 1013.35 1013.29 1013.16 1012.98 1012.76 1012.55
1008.65 1008.58 1008.33 1007.88 1007.24 1006.47 1005.63 1004.81 1004.09 1003.53 1003.19 1003.06 1003.14 1003.41 1003.81 1004.33 1004.91 1005.55 1006.22 1006.91 1007.62 1008.34 1009.04 1009.72 1010.35 1010.91 1011.40 1011.80 1012.12 1012.38 1012.59 1012.78 1012.95 1013.12 1013.27 1013.40 1013.48 1013.51 1013.47 1013.36 1013.18 1012.96 1012.72
1008.31 1008.40 1008.33 1008.05 1007.58 1006.94 1006.19 1005.43 1004.73 1004.16 1003.77 1003.57 1003.57 1003.73 1004.04 1004.45 1004.95 1005.50 1006.10 1006.74 1007.42 1008.12 1008.82 1009.52 1010.18 1010.79 1011.32 1011.77 1012.14 1012.43 1012.66 1012.86 1013.03 1013.19 1013.34 1013.46 1013.56 1013.60 1013.58 1013.49 1013.34 1013.13 1012.89
1008.06 1008.30 1008.40 1008.29 1007.98 1007.48 1006.85 1006.16 1005.50 1004.93 1004.51 1004.25 1004.15 1004.22 1004.41 1004.71 1005.09 1005.54 1006.05 1006.61 1007.23 1007.89 1008.58 1009.28 1009.97 1010.61 1011.19 1011.69 1012.09 1012.42 1012.67 1012.87 1013.04 1013.19 1013.33 1013.45 1013.54 1013.60 1013.61 1013.56 1013.44 1013.27 1013.05
1008.00 1008.37 1008.60 1008.64 1008.46 1008.08 1007.55 1006.94 1006.32 1005.76 1005.32 1005.00 1004.84 1004.80 1004.89 1005.07 1005.34 1005.67 1006.07 1006.54 1007.08 1007.68 1008.34 1009.02 1009.71 1010.37 1010.98 1011.51 1011.95 1012.31 1012.58 1012.79 1012.95 1013.09 1013.22 1013.34 1013.45 1013.53 1013.58 1013.57 1013.51 1013.39 1013.22
1008.23 1008.67 1008.98 1009.09 1009.00 1008.70 1008.24 1007.69 1007.11 1006.57 1006.11 1005.77 1005.54 1005.44 1005.43 1005.51 1005.67 1005.89 1006.18 1006.55 1007.00 1007.52 1008.12 1008.76 1009.43 1010.08 1010.70 1011.25 1011.71 1012.08 1012.36 1012.58 1012.75 1012.89 1013.02 1013.15 1013.28 1013.39 1013.49 1013.54 1013.55 1013.50 1013.39
1008.70 1009.15 1009.47 1009.61 1009.54 1009.27 1008.85 1008.34 1007.79 1007.27 1006.82 1006.46 1006.21 1006.05 1005.98 1005.99 1006.05 1006.18 1006.37 1006.64 1006.99 1007.43 1007.94 1008.52 1009.14 1009.76 1010.36 1010.90 1011.36 1011.74 1012.04 1012.27 1012.45 1012.61 1012.75 1012.90 1013.06 1013.22 1013.36 1013.48 1013.56 1013.58 1013.54
1009.34 1009.74 1010.01 1010.10 1010.01 1009.73 1009.33 1008.84 1008.32 1007.82 1007.39 1007.05 1006.79 1006.61 1006.51 1006.46 1006.46 1006.51 1006.62 1006.80 1007.06 1007.40 1007.82 1008.32 1008.86 1009.42 1009.97 1010.48 1010.93 1011.31 1011.62 1011.86 1012.07 1012.25 1012.43 1012.61 1012.81 1013.02 1013.21 1013.39 1013.52 1013.61 1013.64
1010.01 1010.32 1010.49 1010.50 1010.35 1010.04 1009.63 1009.15 1008.66 1008.21 1007.81 1007.49 1007.25 1007.08 1006.96 1006.89 1006.85 1006.85 1006.90 1007.00 1007.17 1007.42 1007.74 1008.14 1008.60 1009.08 1009.57 1010.03 1010.44 1010.81 1011.12 1011.38 1011.61 1011.83 1012.05 1012.28 1012.53 1012.78 1013.02 1013.24 1013.42 1013.55 1013.63
1010.59 1010.78 1010.83 1010.74 1010.52 1010.17 1009.75 1009.29 1008.84 1008.42 1008.07 1007.79 1007.58 1007.42 1007.30 1007.22 1007.17 1007.13 1007.13 1007.18 1007.28 1007.45 1007.68 1007.99 1008.35 1008.74 1009.15 1009.54 1009.92 1010.26 1010.57 1010.85 1011.11 1011.37 1011.63 1011.91 1012.19 1012.48 1012.76 1013.01 1013.22 1013.38 1013.49
1010.98 1011.03 1010.97 1010.79 1010.50 1010.12 1009.70 1009.27 1008.86 1008.49 1008.18 1007.93 1007.75 1007.60 1007.50 1007.41 1007.34 1007.29 1007.27 1007.27 1007.33 1007.43 1007.60 1007.82 1008.09 1008.39 1008.71 1009.04 1009.36 1009.67 1009.97 1010.26 1010.55 1010.84 1011.15 1011.46 1011.78 1012.10 1012.40 1012.67 1012.89 1013.06 1013.18
1011.12 1011.05 1010.89 1010.63 1010.30 1009.92 1009.52 1009.12 1008.75 1008.42 1008.15 1007.93 1007.75 1007.61 1007.50 1007.41 1007.34 1007.28 1007.24 1007.23 1007.26 1007.33 1007.44 1007.60 1007.79 1008.02 1008.26 1008.52 1008.79 1009.06 1009.34 1009.63 1009.93 1010.25 1010.59 1010.94 1011.29 1011.63 1011.94 1012.21 1012.43 1012.60 1012.72
1011.01 1010.84 1010.60 1010.30 1009.96 1009.59 1009.23 1008.87 1008.54 1008.24 1007.98 1007.76 1007.58 1007.42 1007.29 1007.19 1007.10 1007.04 1007.01 1007.01 1007.03 1007.09 1007.18 1007.30 1007.44 1007.61 1007.79 1007.99 1008.20 1008.43 1008.69 1008.97 1009.27 1009.61 1009.97 1010.34 1010.71 1011.06 1011.38 1011.65 1011.87 1012.03 1012.15
1010.71 1010.46 1010.17 1009.85 1009.52 1009.19 1008.86 1008.55 1008.25 1007.97 1007.70 1007.46 1007.24 1007.04 1006.87 1006.74 1006.65 1006.59 1006.57 1006.58 1006.63 1006.71 1006.80 1006.91 1007.03 1007.15 1007.29 1007.43 1007.60 1007.79 1008.01 1008.27 1008.58 1008.92 1009.29 1009.67 1010.05 1010.42 1010.74 1011.02 1011.24 1011.41 1011.54
1010.27 1009.96 1009.64 1009.33 1009.03 1008.74 1008.45 1008.17 1007.89 1007.60 1007.31 1007.02 1006.75 1006.50 1006.28 1006.11 1006.00 1005.95 1005.95 1005.99 1006.08 1006.19 1006.30 1006.42 1006.54 1006.64 1006.74 1006.85 1006.97 1007.13 1007.32 1007.56 1007.85 1008.19 1008.56 1008.96 1009.35 1009.73 1010.07 1010.35 1010.59 1010.77 1010.92
1009.76 1009.41 1009.08 1008.78 1008.51 1008.26 1008.02 1007.76 1007.48 1007.17 1006.84 1006.49 1006.15 1005.84 1005.56 1005.36 1005.22 1005.17 1005.20 1005.28 1005.41 1005.56 1005.71 1005.85 1005.97 1006.07 1006.15 1006.23 1006.32 1006.44 1006.61 1006.83 1007.11 1007.45 1007.82 1008.22 1008.62 1009.01 1009.37 1009.68 1009.94 1010.15 1010.33
1009.23 1008.84 1008.51 1008.23 1007.99 1007.77 1007.56 1007.31 1007.03 1006.69 1006.31 1005.91 1005.50 1005.11 1004.79 1004.54 1004.39 1004.34 1004.38 1004.50 1004.66 1004.85 1005.03 1005.19 1005.32 1005.42 1005.49 1005.55 1005.62 1005.72 1005.87 1006.08 1006.35 1006.68 1007.06 1007.46 1007.87 1008.27 1008.64 1008.97 1009.26 1009.51 1009.73
1008.68 1008.28 1007.94 1007.68 1007.47 1007.28 1007.08 1006.84 1006.54 1006.18 1005.75 1005.30 1004.83 1004.40 1004.02 1003.75 1003.58 1003.52 1003.57 1003.70 1003.88 1004.08 1004.28 1004.45 1004.58 1004.67 1004.73 1004.78 1004.84 1004.93 1005.08 1005.28 1005.55 1005.88 1006.25 1006.65 1007.06 1007.46 1007.84 1008.19 1008.50 1008.78 1009.05
1008.13 1007.72 1007.39 1007.14 1006.95 1006.78 1006.59 1006.35 1006.04 1005.65 1005.20 1004.70 1004.20 1003.72 1003.32 1003.01 1002.82 1002.75 1002.79 1002.90 1003.08 1003.27 1003.45 1003.61 1003.73 1003.81 1003.86 1003.90 1003.96 1004.05 1004.20 1004.41 1004.67 1005.00 1005.37 1005.76 1006.16 1006.54 1006.91 1007.25 1007.57 1007.87 1008.17
1007.58 1007.16 1006.84 1006.61 1006.43 1006.27 1006.08 1005.84 1005.52 1005.12 1004.65 1004.14 1003.61 1003.12 1002.69 1002.36 1002.15 1002.04 1002.04 1002.12 1002.25 1002.40 1002.55 1002.67 1002.75 1002.81 1002.84 1002.88 1002.95 1003.05 1003.21 1003.43 1003.70 1004.03 1004.38 1004.74 1005.11 1005.45 1005.78 1006.09 1006.38 1006.68 1007.00
1007.04 1006.63 1006.32 1006.09 1005.92 1005.76 1005.57 1005.32 1005.00 1004.59 1004.12 1003.60 1003.07 1002.57 1002.13 1001.78 1001.53 1001.38 1001.32 1001.34 1001.40 1001.47 1001.55 1001.61 1001.65 1001.67 1001.70 1001.74 1001.81 1001.93 1002.11 1002.34 1002.62 1002.93 1003.25 1003.57 1003.88 1004.16 1004.41 1004.65 1004.89 1005.15 1005.46
Thickness
5603 5604 5605 5605 5606 5606 5607 5607 5608 5609 5611 5612 5614 5615 5616 5618 5620 5621 5622 5622 5622 5621 5620 5620 5619 5618 5618 5618 5617 5617 5616 5614 5614 5613 5613 5616 5619 5621 5622 5622 5622 5622 5622
5592 5593 5594 5594 5594 5595 5596 5597 5598 5600 5602 5604 5606 5608 5609 5610 5612 5613 5614 5615 5614 5614 5613 5612 5612 5611 5610 5610 5609 5609 5607 5607 5606 5604 5602 5604 5606 5611 5615 5615 5615 5615 5615
5580 5581 5582 5582 5582 5583 5585 5588 5589 5591 5593 5595 5596 5598 5599 5600 5602 5603 5605 5607 5607 5606 5606 5605 5604 5604 5604 5603 5602 5602 5601 5599 5599 5599 5597 5596 5598 5599 5604 5606 5608 5608 5608
5570 5570 5571 5571 5571 5573 5575 5577 5579 5581 5584 5585 5587 5589 5591 5592 5596 5596 5597 5598 5598 5598 5598 5598 5597 5597 5597 5596 5596 5595 5595 5593 5591 5591 5591 5592 5592 5590 5591 5595 5597 5599 5600
5558 5557 5558 5559 5560 5562 5564 5566 5568 5571 5574 5576 5579 5580 5581 5584 5587 5587 5588 5589 5589 5589 5590 5590 5591 5590 5590 5589 5588 5587 5587 5586 5585 5584 5583 5583 5583 5584 5582 5584 5586 5587 5590
5545 5545 5546 5547 5548 5549 5551 5554 5556 5560 5564 5566 5569 5571 5573 5575 5577 5578 5579 5580 5579 5580 5582 5582 5583 5583 5583 5582 5582 5581 5579 5579 5578 5577 5576 5576 5575 5575 5575 5576 5577 5578 5580
5531 5532 5533 5533 5535 5536 5539 5542 5545 5549 5553 5557 5560 5562 5564 5566 5568 5570 5571 5571 5571 5572 5574 5575 5575 5575 5576 5575 5574 5573 5572 5571 5570 5570 5570 5570 5570 5570 5569 5568 5568 5567 5568
5517 5518 5519 5520 5521 5524 5527 5530 5535 5539 5543 5547 5550 5553 5555 5557 5559 5560 5562 5563 5565 5566 5566 5566 5567 5568 5567 5567 5566 5565 5564 5563 5563 5563 5562 5562 5562 5562 5561 5560 5557 5556 5557
5506 5505 5506 5508 5509 5511 5514 5518 5523 5528 5532 5536 5539 5543 5545 5547 5549 5551 5552 5555 5556 5557 5557 5558 5559 5559 5559 5558 5558 5557 5556 5556 5555 5554 5554 5554 5554 5553 5553 5552 5551 5547 5547
5494 5494 5495 5496 5497 5499 5502 5507 5511 5515 5519 5523 5527 5531 5535 5537 5539 5540 5542 5544 5546 5548 5548 5549 5550 5551 5551 5551 5549 5548 5548 5547 5547 5546 5545 5545 5545 5544 5544 5542 5542 5541 5540
5482 5482 5483 5485 5486 5487 5490 5494 5498 5502 5506 5510 5514 5518 5522 5525 5528 5530 5532 5534 5536 5538 5540 5541 5542 5543 5543 5543 5542 5541 5540 5540 5539 5538 5538 5537 5537 5536 5535 5533 5532 5531 5530
5472 5471 5472 5473 5474 5476 5479 5482 5486 5490 5493 5498 5502 5506 5510 5513 5516 5519 5522 5525 5527 5529 5531 5533 5534 5535 5535 5535 5535 5534 5533 5533 5531 5530 5529 5528 5528 5527 5526 5525 5523 5522 5521
5461 5461 5461 5462 5463 5466 5468 5471 5474 5478 5481 5485 5489 5493 5497 5501 5505 5508 5512 5515 5518 5520 5522 5524 5526 5527 5527 5528 5528 5527 5527 5525 5524 5523 5522 5520 5520 5519 5518 5516 5515 5513 5513
5450 5450 5450 5451 5453 5455 5457 5460 5463 5466 5470 5473 5477 5480 5485 5489 5493 5497 5500 5504 5507 5510 5513 5515 5517 5519 5519 5520 5520 5519 5519 5517 5516 5515 5513 5512 5512 5512 5510 5508 5507 5505 5503
5442 5441 5441 5442 5444 5446 5448 5450 5453 5456 5459 5462 5465 5468 5473 5477 5481 5484 5488 5492 5495 5499 5503 5505 5508 5509 5511 5511 5511 5511 5510 5508 5507 5505 5504 5504 5504 5503 5501 5500 5499 5496 5494
5433 5433 5433 5434 5435 5436 5438 5441 5443 5446 5449 5451 5454 5457 5461 5465 5469 5472 5476 5479 5483 5488 5492 5495 5497 5499 5501 5502 5503 5502 5502 5500 5498 5497 5496 5495 5494 5494 5493 5492 5490 5488 5487
5423 5423 5423 5425 5426 5427 5430 5432 5434 5436 5438 5440 5443 5446 5449 5453 5456 5460 5464 5467 5472 5477 5480 5484 5487 5489 5490 5491 5492 5493 5492 5490 5489 5488 5487 5486 5486 5485 5484 5482 5481 5480 5479
5414 5414 5414 5415 5416 5418 5420 5423 5425 5427 5428 5431 5433 5435 5437 5440 5444 5447 5451 5455 5460 5464 5468 5471 5476 5478 5479 5480 5481 5482 5481 5480 5479 5478 5478 5477 5477 5475 5475 5473 5471 5470 5469
5406 5406 5406 5407 5409 5410 5412 5414 5415 5417 5419 5420 5422 5424 5427 5429 5432 5436 5439 5443 5448 5453 5455 5459 5462 5465 5467 5469 5470 5471 5469 5469 5469 5468 5468 5468 5467 5466 5466 5464 5461 5460 5459
5399 5400 5400 5401 5402 5403 5405 5406 5407 5407 5408 5410 5412 5415 5417 5419 5422 5425 5428 5432 5436 5440 5443 5446 5450 5452 5454 5456 5458 5459 5459 5458 5458 5458 5457 5457 5458 5457 5456 5455 5453 5451 5449
5392 5393 5393 5393 5394 5395 5396 5397 5398 5398 5399 5400 5403 5405 5407 5409 5411 5414 5417 5421 5425 5429 5431 5435 5437 5439 5442 5444 5447 5448 5448 5449 5448 5448 5448 5448 5448 5448 5447 5446 5444 5443 5441
5384 5385 5385 5385 5386 5387 5388 5389 5389 5390 5391 5393 5395 5396 5398 5400 5402 5404 5406 5409 5413 5417 5420 5422 5424 5426 5428 5431 5433 5435 5437 5439 5439 5439 5439 5439 5438 5438 5438 5436 5435 5434 5432
5376 5377 5378 5378 5378 5378 5379 5379 5380 5382 5383 5385 5386 5387 5389 5390 5393 5395 5396 5399 5402 5406 5409 5411 5413 5414 5416 5418 5421 5423 5426 5427 5428 5429 5429 5429 5429 5428 5427 5426 5425 5424 5422
5368 5370 5371 5371 5371 5371 5371 5372 5373 5375 5376 5378 5379 5381 5382 5383 5384 5386 5388 5390 5392 5395 5399 5402 5403 5403 5405 5407 5409 5412 5414 5416 5416 5417 5418 5419 5418 5418 5417 5416 5415 5414 5413
5362 5363 5363 5363 5363 5363 5364 5365 5366 5367 5369 5371 5373 5374 5376 5377 5378 5379 5380 5382 5385 5387 5390 5392 5393 5395 5396 5399 5401 5403 5404 5405 5407 5408 5408 5408 5407 5406 5405 5404 5404 5404 5404
5354 5354 5354 5355 5355 5356 5357 5358 5359 5360 5362 5364 5366 5367 5369 5370 5371 5372 5374 5376 5378 5380 5383 5385 5385 5387 5389 5391 5393 5395 5396 5397 5398 5399 5399 5398 5398 5397 5396 5395 5394 5394 5394